Franklin, NC

4:57 AM EST on February 24, 2017 (GMT -0500)
Franklin

Weather History for K1A5 - August, 2014

Change the Weather History Date:

Friday, August 8, 2014

  Actual Average (KTOC) Record (KTOC)
Temperature  
Mean Temperature 68 °F -  
Max Temperature 73 °F 87 °F 90 °F (2015)
Min Temperature 62 °F 66 °F 68 °F (2015)
Cooling Degree Days 2    
Growing Degree Days 18 (Base 50)    
Moisture  
Dew Point 64 °F    
Average Humidity 95    
Maximum Humidity 100    
Minimum Humidity 74    
Precipitation  
Precipitation 0.97 in - - ()
Sea Level Pressure  
Sea Level Pressure 30.14 in    
Wind  
Wind Speed 0 mph (ENE)    
Max Wind Speed 5 mph    
Max Gust Speed -    
Visibility 6 miles    
Events Rain    
Averages and records for this station are not official NWS values.
T = Trace of Precipitation, MM = Missing Value Source: NWS Daily Summary

Daily Weather History Graph

Daily Weather History Graph

Search for Another Location

Airport or City:

Trip Planner

Search our weather history database for the weather conditions in past years. The results will help you decide how hot, cold, wet, or windy it might be!

Date:

Astronomy

Aug. 08, 2014 Rise Set
Actual Time 6:48 AM EDT 8:30 PM EDT
Civil Twilight 6:20 AM EDT 8:57 PM EDT
Nautical Twilight 5:47 AM EDT 9:30 PM EDT
Astronomical Twilight 5:12 AM EDT 10:05 PM EDT
Moon 6:39 PM EDT (8/8) 4:20 AM EDT (8/8)
Length of Visible Light 14h 36m
Length of Day
13h 42m
Waxing Gibbous, 93% of the Moon is Illuminated
Aug 8
Waxing Gibbous
Aug 10
Full
Aug 17
Last Quarter
Aug 25
New
Sep 2
First Quarter

Hourly Weather History & Observations

Time (EDT) Temp. Dew Point Humidity Pressure Visibility Wind Dir Wind Speed Gust Speed Precip Events Conditions
12:15 AM 64.4 °F 64.4 °F 100% 30.12 in 7.0 mi Calm Calm - N/A   Unknown
12:35 AM 63.9 °F 63.9 °F 100% 30.13 in 7.0 mi Calm Calm - N/A   Unknown
12:55 AM 64.4 °F 64.4 °F 100% 30.13 in 7.0 mi Calm Calm - N/A   Unknown
1:15 AM 63.7 °F 63.7 °F 100% 30.13 in 7.0 mi Calm Calm - N/A   Unknown
1:35 AM 63.5 °F 63.5 °F 100% 30.13 in 5.0 mi Calm Calm - N/A   Mist
1:55 AM 63.1 °F 63.1 °F 100% 30.12 in 7.0 mi WSW 4.6 mph - N/A   Unknown
2:15 AM 63.5 °F 63.5 °F 100% 30.12 in 10.0 mi Calm Calm - N/A   Unknown
2:35 AM 63.5 °F 63.5 °F 100% 30.11 in 5.0 mi Calm Calm - N/A   Mist
2:55 AM 63.1 °F 63.1 °F 100% 30.10 in 7.0 mi Calm Calm - N/A   Unknown
3:15 AM 62.8 °F 62.8 °F 100% 30.10 in 7.0 mi Calm Calm - N/A   Unknown
3:35 AM 62.6 °F 62.6 °F 100% 30.10 in 4.0 mi Calm Calm - N/A   Mist
3:55 AM 62.2 °F 62.2 °F 100% 30.10 in 5.0 mi Calm Calm - N/A   Mist
4:15 AM 62.6 °F 62.6 °F 100% 30.11 in 7.0 mi Calm Calm - N/A   Unknown
4:35 AM 62.6 °F 62.6 °F 100% 30.11 in 5.0 mi Calm Calm - N/A   Mist
4:55 AM 62.4 °F 62.4 °F 100% 30.11 in 5.0 mi Calm Calm - N/A   Mist
5:15 AM 62.6 °F 62.6 °F 100% 30.12 in 7.0 mi Calm Calm - N/A   Light Drizzle
5:35 AM 62.6 °F 62.6 °F 100% 30.12 in 7.0 mi Calm Calm - N/A   Unknown
5:55 AM 63.0 °F 63.0 °F 100% 30.12 in 7.0 mi Calm Calm - N/A   Unknown
6:15 AM 63.0 °F 63.0 °F 100% 30.12 in 5.0 mi Calm Calm - 0.01 in Rain Light Rain
6:35 AM 63.0 °F 63.0 °F 100% 30.13 in 5.0 mi Calm Calm - 0.01 in   Mist
6:55 AM 62.8 °F 62.8 °F 100% 30.13 in 5.0 mi Calm Calm - 0.01 in   Mist
7:15 AM 63.0 °F 63.0 °F 100% 30.14 in 5.0 mi Calm Calm - N/A   Mist
7:35 AM 63.1 °F 63.1 °F 100% 30.15 in 5.0 mi Calm Calm - N/A   Mist
7:55 AM 63.0 °F 63.0 °F 100% 30.16 in 5.0 mi Calm Calm - 0.01 in Rain Light Rain
8:15 AM 63.1 °F 63.1 °F 100% 30.17 in 3.0 mi Calm Calm - 0.01 in Rain Rain
8:35 AM 63.5 °F 63.5 °F 100% 30.18 in 5.0 mi Calm Calm - 0.01 in   Mist
8:55 AM 63.5 °F 63.5 °F 100% 30.19 in 3.0 mi Calm Calm - 0.03 in Rain Rain
9:15 AM 63.7 °F 63.7 °F 100% 30.18 in 3.0 mi Calm Calm - 0.01 in Rain Light Rain
9:35 AM 64.0 °F 64.0 °F 100% 30.18 in 3.0 mi Calm Calm - 0.03 in Rain Light Rain
9:55 AM 64.4 °F 64.4 °F 100% 30.20 in 3.0 mi Calm Calm - 0.06 in Rain Rain
10:15 AM 64.0 °F 64.0 °F 100% 30.20 in 0.8 mi Calm Calm - 0.17 in Rain Heavy Rain
10:35 AM 64.4 °F 64.4 °F 100% 30.19 in 1.5 mi Calm Calm - 0.26 in Rain Heavy Rain
10:55 AM 64.4 °F 64.4 °F 100% 30.20 in 1.5 mi Calm Calm - 0.34 in Rain Heavy Rain
11:15 AM 64.4 °F 64.4 °F 100% 30.20 in 1.0 mi Calm Calm - 0.12 in Rain Heavy Rain
11:35 AM 64.4 °F 64.4 °F 100% 30.21 in 2.0 mi Calm Calm - 0.20 in Rain Rain
11:55 AM 64.6 °F 64.6 °F 100% 30.20 in 2.0 mi Calm Calm - 0.25 in Rain Rain
12:35 PM 64.4 °F 64.4 °F 100% 30.20 in 1.8 mi Calm Calm - 0.20 in Rain Heavy Rain
12:55 PM 64.8 °F 64.8 °F 100% 30.19 in 3.0 mi Calm Calm - 0.23 in Rain Light Rain
1:15 PM 65.5 °F 65.5 °F 100% 30.18 in 5.0 mi Calm Calm - 0.01 in Rain Light Rain
1:35 PM 66.2 °F 65.8 °F 99% 30.18 in 7.0 mi Calm Calm - 0.01 in Rain Rain
1:55 PM 67.1 °F 66.2 °F 97% 30.17 in 7.0 mi Calm Calm - 0.02 in Rain Light Rain
2:15 PM 67.6 °F 65.8 °F 94% 30.17 in 10.0 mi NNE 3.5 mph - N/A   Unknown
2:35 PM 67.5 °F 65.1 °F 92% 30.17 in 10.0 mi Calm Calm - N/A Rain Light Rain
2:55 PM 68.0 °F 66.0 °F 93% 30.15 in 10.0 mi Calm Calm - N/A   Unknown
3:15 PM 68.0 °F 65.7 °F 92% 30.15 in 10.0 mi Calm Calm - N/A   Unknown
3:35 PM 68.0 °F 64.8 °F 89% 30.15 in 4.0 mi Calm Calm - 0.02 in Rain Rain
3:55 PM 69.4 °F 66.2 °F 89% 30.13 in 10.0 mi Calm Calm - 0.02 in   Unknown
4:15 PM 71.2 °F 67.3 °F 87% 30.12 in 10.0 mi ENE 4.6 mph - N/A   Unknown
4:35 PM 70.3 °F 66.6 °F 88% 30.13 in 10.0 mi Calm Calm - N/A   Unknown
4:55 PM 71.1 °F 66.0 °F 84% 30.12 in 10.0 mi NE 3.5 mph - N/A   Unknown
5:15 PM 72.7 °F 64.8 °F 76% 30.12 in 10.0 mi Calm Calm - N/A   Unknown
5:35 PM 73.2 °F 65.3 °F 76% 30.12 in 10.0 mi East 4.6 mph - N/A   Unknown
5:55 PM 73.4 °F 64.9 °F 75% 30.11 in 10.0 mi ENE 3.5 mph - N/A   Unknown
6:15 PM 73.4 °F 65.3 °F 76% 30.11 in 10.0 mi Calm Calm - N/A   Unknown
6:35 PM 73.4 °F 64.8 °F 74% 30.10 in 10.0 mi Calm Calm - N/A   Unknown
6:55 PM 72.9 °F 65.8 °F 79% 30.10 in 10.0 mi Calm Calm - N/A   Unknown
7:15 PM 71.8 °F 67.8 °F 87% 30.11 in 10.0 mi Calm Calm - N/A   Unknown
7:35 PM 71.1 °F 64.6 °F 80% 30.10 in 10.0 mi Calm Calm - N/A   Unknown
7:55 PM 70.7 °F 63.5 °F 78% 30.10 in 10.0 mi Calm Calm - N/A   Unknown
8:15 PM 70.7 °F 63.1 °F 77% 30.11 in 10.0 mi Calm Calm - N/A   Unknown
8:35 PM 70.2 °F 63.3 °F 79% 30.12 in 10.0 mi Calm Calm - N/A   Unknown
8:55 PM 68.0 °F 64.9 °F 90% 30.13 in 7.0 mi Calm Calm - N/A   Unknown
9:15 PM 67.1 °F 67.1 °F 100% 30.12 in 5.0 mi Calm Calm - N/A   Mist
9:35 PM 67.1 °F 67.1 °F 100% 30.13 in 7.0 mi Calm Calm - N/A Rain Light Rain
9:55 PM 66.4 °F 66.4 °F 100% 30.13 in 5.0 mi Calm Calm - N/A   Mist
10:15 PM 66.4 °F 66.4 °F 100% 30.15 in 5.0 mi Calm Calm - N/A   Mist
10:35 PM 65.5 °F 65.5 °F 100% 30.14 in 4.0 mi Calm Calm - N/A   Mist
10:55 PM 65.8 °F 65.8 °F 100% 30.14 in 4.0 mi Calm Calm - N/A   Mist
11:15 PM 64.8 °F 64.8 °F 100% 30.14 in 3.0 mi Calm Calm - N/A   Mist
11:55 PM 64.0 °F 64.0 °F 100% 30.15 in 3.0 mi Calm Calm - N/A   Mist